Location: Pedimozza
(42.0500°N, 9.3500°E)
Time: 03:52:43
(UTC+00:00)

SL-08 ROCKET BODY - Pass Details

Date: 19 August 2019
Orbit: 896 x 964 km, 82.9° (Epoch: 19 September)

Event Time Altitude Azimuth Distance (km) Brightness Sun altitude
Rises 20:13:50 0° 355° (N) 3,552 8.1 -19.7°
Reaches altitude 10° 20:16:21 10° 359° (N) 2,598 7.3 -20.1°
Maximum altitude 20:22:11 61° 80° (E) 1,013 4.4 -20.9°
Enters shadow 20:24:04 41° 140° (SE) 1,273 4.6 -21.1°
